This is the latest recevied weather packets stored in our database for station/object KJ7BRE-1. If no packets are shown the sender has not sent any weather packets the latest 10 day(s).
| Time | Temp. | Humidity | Pressure | Rain* | Wind** | Luminosity | Snow |
|---|---|---|---|---|---|---|---|
| 1787599797 | 28.33° C | 46% | 1011.5 hPa | 0 mm | - | - | - |
| 1787599495 | 27.78° C | 47% | 1011.5 hPa | 0 mm | - | - | - |
| 1787599194 | 27.78° C | 47% | 1011.9 hPa | 0 mm | - | - | - |
| 1787598893 | 27.78° C | 49% | 1011.9 hPa | 0 mm | - | - | - |
| 1787598592 | 27.22° C | 50% | 1011.5 hPa | 0 mm | - | - | - |
| 1787598291 | 26.67° C | 51% | 1011.5 hPa | 0 mm | - | - | - |
| 1787597989 | 26.67° C | 52% | 1011.9 hPa | 0 mm | - | - | - |
| 1787597688 | 26.67° C | 51% | 1011.9 hPa | 0 mm | - | - | - |
| 1787597387 | 26.67° C | 51% | 1012.2 hPa | 0 mm | - | - | - |
| 1787597086 | 26.11° C | 52% | 1012.2 hPa | 0 mm | - | - | - |
| 1787596784 | 26.11° C | 52% | 1012.5 hPa | 0 mm | - | - | - |
| 1787596483 | 26.11° C | 53% | 1012.2 hPa | 0 mm | - | - | - |
| 1787596182 | 25.56° C | 54% | 1012.2 hPa | 0 mm | - | - | - |
| 1787595881 | 25° C | 55% | 1012.2 hPa | 0 mm | - | - | - |
| 1787595580 | 25° C | 55% | 1012.5 hPa | 0 mm | - | - | - |
| 1787595278 | 25° C | 56% | 1012.5 hPa | 0 mm | - | - | - |
| 1787594977 | 24.44° C | 55% | 1012.5 hPa | 0 mm | - | - | - |
| 1787594676 | 24.44° C | 54% | 1012.5 hPa | 0 mm | - | - | - |
| 1787594374 | 25° C | 56% | 1012.9 hPa | 0 mm | - | - | - |
| 1787594073 | 24.44° C | 56% | 1012.5 hPa | 0 mm | - | - | - |
| 1787593772 | 23.89° C | 58% | 1012.9 hPa | 0 mm | - | - | - |
| 1787593471 | 23.89° C | 57% | 1012.9 hPa | 0 mm | - | - | - |
| 1787593170 | 23.89° C | 56% | 1012.9 hPa | 0 mm | - | - | - |
| 1787592869 | 23.33° C | 59% | 1012.9 hPa | 0 mm | - | - | - |
| 1787592567 | 23.33° C | 58% | 1012.9 hPa | 0 mm | - | - | - |
* Rain latest hour (hover to see other rain measurements)
** Current wind speed in m/s (hover to see current wind gust speed)